Weather in Melbourne

Australia     37°48′49″S   144°57′46″E
temp.,
°C
wind,
m/s
gust,
m/s
humid.,
%
clouds,
%
prec.,
mm/h
press.,
hPa
HPBL,
m
6 march, sat
sat623:00+15s576298 0.0 10161180
02:00+14s476799 0.1 10151001
05:00+14s366695 0.1 1013926
08:00+13sse257070 0.0 1014677
11:00+18s345048 0.0 1014889
14:00+20ssw45470 0.0 1013825
17:00+20ssw56546 0.0 1011681
20:00+18s366722 0.0 1012504
7 march, sun
sun723:00+16sw247561 0.0 1013321
02:00+14wnw248256 0.0 1012197
05:00+13n128565 0.0 1011135
08:00+13nne238295 0.0 1012135
11:00+22n383897 0.0 1012629
14:00+28nnw461999 0.0 10092175
17:00+29nw2517100 0.0 10082541
20:00+23ssw243869 0.0 1009191
8 march, mon
mon823:00+20wsw245680 0.0 1010225
02:00+18nw236993 0.0 1009239
05:00+18wnw016996 0.0 1010176
08:00+18ssw2473100 0.1 1011309
11:00+18wsw237395 0.1 1012527
14:00+17wsw2373100 0.3 1012464
17:00+19s125991 0.5 1012672
20:00+18s246931 0.0 1013387
9 march, tue
tue923:00+16sse248020 0.0 1015409
02:00+16s238087 0.0 1015389
05:00+16ssw118093 0.0 1015300
08:00+15ssw237999 0.0 1016418
11:00+17ssw236899 0.1 1018741
14:00+19ssw345796 0.0 1017885
17:00+19s455298 0.0 1016655
20:00+17s466927 0.0 1017584
10 march, wed
wed1023:00+15sse367549 0.0 1019490
02:00+14se3574100 0.0 1019417
05:00+13sse2577100 0.0 1018342
08:00+13se2578100 0.0 1019354
11:00+16s2365100 0.0 1018584
14:00+20sw2149100 0.0 1017659
17:00+17sse1270100 1.1 1016303
20:00+17s1375100 0.1 1015335